owner,sensor,date,latitude,longitude,vertical_datum,sea_water_practical_salinity,qcFlag 
ENP,ioos.station.NOAA.NDBC:LBRF1:1,2010-11-02T17:00:00Z,25.4840,-81.1330,1.5,12.4,11111222 
ENP,ioos.station.NOAA.NDBC:LBRF1:1,2010-11-02T18:00:00Z,25.4840,-81.1330,1.5,12.7,11111222 
ENP,ioos.station.NOAA.NDBC:LBRF1:1,2010-11-02T19:00:00Z,25.4840,-81.1330,1.5,4.8,11111222 
ENP,ioos.station.NOAA.NDBC:LBRF1:1,2010-11-02T22:00:00Z,25.4840,-81.1330,1.5,2.1,11111222 
ENP,ioos.station.NOAA.NDBC:LBRF1:1,2010-11-03T01:00:00Z,25.4840,-81.1330,1.5,1.8,11111222 
ENP,ioos.station.NOAA.NDBC:LBRF1:1,2010-11-03T05:00:00Z,25.4840,-81.1330,1.5,15.9,11111222 
ENP,ioos.station.NOAA.NDBC:LBRF1:1,2010-11-03T08:00:00Z,25.4840,-81.1330,1.5,9.7,11111222 
ENP,ioos.station.NOAA.NDBC:LBRF1:1,2010-11-03T09:00:00Z,25.4840,-81.1330,1.5,5.8,11111222 
ENP,ioos.station.NOAA.NDBC:LBRF1:1,2010-11-03T10:00:00Z,25.4840,-81.1330,1.5,3.1,11111222 
ENP,ioos.station.NOAA.NDBC:LBRF1:1,2010-11-03T11:00:00Z,25.4840,-81.1330,1.5,2.3,11111222 
ENP,ioos.station.NOAA.NDBC:LBRF1:1,2010-11-03T12:00:00Z,25.4840,-81.1330,1.5,2.1,11111222 
ENP,ioos.station.NOAA.NDBC:LBRF1:1,2010-11-03T13:00:00Z,25.4840,-81.1330,1.5,2.0,11111222 
ENP,ioos.station.NOAA.NDBC:LBRF1:1,2010-11-03T14:00:00Z,25.4840,-81.1330,1.5,2.0,11111222 
ENP,ioos.station.NOAA.NDBC:LBRF1:1,2010-11-03T15:00:00Z,25.4840,-81.1330,1.5,2.3,11111222 
ENP,ioos.station.NOAA.NDBC:LBRF1:1,2010-11-03T16:00:00Z,25.4840,-81.1330,1.5,7.0,11111222 
ENP,ioos.station.NOAA.NDBC:LBRF1:1,2010-11-03T18:00:00Z,25.4840,-81.1330,1.5,19.6,11111222 
ENP,ioos.station.NOAA.NDBC:LBRF1:1,2010-11-03T19:00:00Z,25.4840,-81.1330,1.5,20.7,11111222 
ENP,ioos.station.NOAA.NDBC:LBRF1:1,2010-11-03T20:00:00Z,25.4840,-81.1330,1.5,16.9,11111222 
ENP,ioos.station.NOAA.NDBC:LBRF1:1,2010-11-03T21:00:00Z,25.4840,-81.1330,1.5,12.6,11111222 
ENP,ioos.station.NOAA.NDBC:LBRF1:1,2010-11-03T22:00:00Z,25.4840,-81.1330,1.5,7.0,11111222 
ENP,ioos.station.NOAA.NDBC:LBRF1:1,2010-11-03T23:00:00Z,25.4840,-81.1330,1.5,3.2,11111222 
ENP,ioos.station.NOAA.NDBC:LBRF1:1,2010-11-04T00:00:00Z,25.4840,-81.1330,1.5,2.5,11111222 
ENP,ioos.station.NOAA.NDBC:LBRF1:1,2010-11-04T01:00:00Z,25.4840,-81.1330,1.5,2.3,11111222 
ENP,ioos.station.NOAA.NDBC:LBRF1:1,2010-11-04T02:00:00Z,25.4840,-81.1330,1.5,2.5,11111222 
ENP,ioos.station.NOAA.NDBC:LBRF1:1,2010-11-04T03:00:00Z,25.4840,-81.1330,1.5,6.8,11111222 
ENP,ioos.station.NOAA.NDBC:LBRF1:1,2010-11-04T05:00:00Z,25.4840,-81.1330,1.5,21.9,11111222 
ENP,ioos.station.NOAA.NDBC:LBRF1:1,2010-11-04T06:00:00Z,25.4840,-81.1330,1.5,24.4,11111222 
ENP,ioos.station.NOAA.NDBC:LBRF1:1,2010-11-04T07:00:00Z,25.4840,-81.1330,1.5,24.6,11111222 
ENP,ioos.station.NOAA.NDBC:LBRF1:1,2010-11-04T08:00:00Z,25.4840,-81.1330,1.5,23.6,11111222 
ENP,ioos.station.NOAA.NDBC:LBRF1:1,2010-11-04T09:00:00Z,25.4840,-81.1330,1.5,20.1,11111222 
ENP,ioos.station.NOAA.NDBC:LBRF1:1,2010-11-04T10:00:00Z,25.4840,-81.1330,1.5,17.8,11111222 
ENP,ioos.station.NOAA.NDBC:LBRF1:1,2010-11-04T11:00:00Z,25.4840,-81.1330,1.5,11.9,11111222 
ENP,ioos.station.NOAA.NDBC:LBRF1:1,2010-11-04T12:00:00Z,25.4840,-81.1330,1.5,5.4,11111222 
ENP,ioos.station.NOAA.NDBC:LBRF1:1,2010-11-04T13:00:00Z,25.4840,-81.1330,1.5,3.2,11111222 
ENP,ioos.station.NOAA.NDBC:LBRF1:1,2010-11-04T14:00:00Z,25.4840,-81.1330,1.5,2.9,11111222 
ENP,ioos.station.NOAA.NDBC:LBRF1:1,2010-11-04T15:00:00Z,25.4840,-81.1330,1.5,3.3,11111222 
ENP,ioos.station.NOAA.NDBC:LBRF1:1,2010-11-04T16:00:00Z,25.4840,-81.1330,1.5,10.9,11111222 
ENP,ioos.station.NOAA.NDBC:LBRF1:1,2010-11-04T18:00:00Z,25.4840,-81.1330,1.5,21.5,11111222 
ENP,ioos.station.NOAA.NDBC:LBRF1:1,2010-11-04T19:00:00Z,25.4840,-81.1330,1.5,23.3,11111222 
ENP,ioos.station.NOAA.NDBC:LBRF1:1,2010-11-04T20:00:00Z,25.4840,-81.1330,1.5,23.5,11111222 
ENP,ioos.station.NOAA.NDBC:LBRF1:1,2010-11-04T21:00:00Z,25.4840,-81.1330,1.5,23.3,11111222 
ENP,ioos.station.NOAA.NDBC:LBRF1:1,2010-11-04T22:00:00Z,25.4840,-81.1330,1.5,22.5,11111222 
ENP,ioos.station.NOAA.NDBC:LBRF1:1,2010-11-04T23:00:00Z,25.4840,-81.1330,1.5,20.0,11111222 
ENP,ioos.station.NOAA.NDBC:LBRF1:1,2010-11-05T00:00:00Z,25.4840,-81.1330,1.5,18.8,11111222 
ENP,ioos.station.NOAA.NDBC:LBRF1:1,2010-11-05T02:00:00Z,25.4840,-81.1330,1.5,17.5,11111222 
ENP,ioos.station.NOAA.NDBC:LBRF1:1,2010-11-05T03:00:00Z,25.4840,-81.1330,1.5,19.2,11111222 
ENP,ioos.station.NOAA.NDBC:LBRF1:1,2010-11-05T04:00:00Z,25.4840,-81.1330,1.5,21.3,11111222 
ENP,ioos.station.NOAA.NDBC:LBRF1:1,2010-11-05T05:00:00Z,25.4840,-81.1330,1.5,24.5,11111222 
ENP,ioos.station.NOAA.NDBC:LBRF1:1,2010-11-05T06:00:00Z,25.4840,-81.1330,1.5,27.1,11111222 
ENP,ioos.station.NOAA.NDBC:LBRF1:1,2010-11-05T07:00:00Z,25.4840,-81.1330,1.5,27.2,11111222 
ENP,ioos.station.NOAA.NDBC:LBRF1:1,2010-11-05T08:00:00Z,25.4840,-81.1330,1.5,26.7,11111222 
ENP,ioos.station.NOAA.NDBC:LBRF1:1,2010-11-05T10:00:00Z,25.4840,-81.1330,1.5,25.9,11111222 
ENP,ioos.station.NOAA.NDBC:LBRF1:1,2010-11-05T11:00:00Z,25.4840,-81.1330,1.5,24.9,11111222 
ENP,ioos.station.NOAA.NDBC:LBRF1:1,2010-11-05T12:00:00Z,25.4840,-81.1330,1.5,22.8,11111222 
ENP,ioos.station.NOAA.NDBC:LBRF1:1,2010-11-05T13:00:00Z,25.4840,-81.1330,1.5,20.3,11111222 
ENP,ioos.station.NOAA.NDBC:LBRF1:1,2010-11-05T14:00:00Z,25.4840,-81.1330,1.5,18.4,11111222 
ENP,ioos.station.NOAA.NDBC:LBRF1:1,2010-11-05T15:00:00Z,25.4840,-81.1330,1.5,12.7,11111222 
ENP,ioos.station.NOAA.NDBC:LBRF1:1,2010-11-05T16:00:00Z,25.4840,-81.1330,1.5,11.3,11111222 
ENP,ioos.station.NOAA.NDBC:LBRF1:1,2010-11-05T18:00:00Z,25.4840,-81.1330,1.5,16.3,11111222 
ENP,ioos.station.NOAA.NDBC:LBRF1:1,2010-11-05T19:00:00Z,25.4840,-81.1330,1.5,18.7,11111222 
ENP,ioos.station.NOAA.NDBC:LBRF1:1,2010-11-05T20:00:00Z,25.4840,-81.1330,1.5,19.3,11111222 
ENP,ioos.station.NOAA.NDBC:LBRF1:1,2010-11-05T21:00:00Z,25.4840,-81.1330,1.5,18.1,11111222 
ENP,ioos.station.NOAA.NDBC:LBRF1:1,2010-11-05T22:00:00Z,25.4840,-81.1330,1.5,13.4,11111222 
ENP,ioos.station.NOAA.NDBC:LBRF1:1,2010-11-05T23:00:00Z,25.4840,-81.1330,1.5,9.9,11111222 
ENP,ioos.station.NOAA.NDBC:LBRF1:1,2010-11-06T00:00:00Z,25.4840,-81.1330,1.5,6.8,11111222 
ENP,ioos.station.NOAA.NDBC:LBRF1:1,2010-11-06T02:00:00Z,25.4840,-81.1330,1.5,5.5,11111222 
ENP,ioos.station.NOAA.NDBC:LBRF1:1,2010-11-06T03:00:00Z,25.4840,-81.1330,1.5,5.4,11111222 
ENP,ioos.station.NOAA.NDBC:LBRF1:1,2010-11-06T04:00:00Z,25.4840,-81.1330,1.5,5.5,11111222 
ENP,ioos.station.NOAA.NDBC:LBRF1:1,2010-11-06T05:00:00Z,25.4840,-81.1330,1.5,7.3,11111222 
ENP,ioos.station.NOAA.NDBC:LBRF1:1,2010-11-06T06:00:00Z,25.4840,-81.1330,1.5,13.8,11111222 
ENP,ioos.station.NOAA.NDBC:LBRF1:1,2010-11-06T07:00:00Z,25.4840,-81.1330,1.5,17.5,11111222 
ENP,ioos.station.NOAA.NDBC:LBRF1:1,2010-11-06T08:00:00Z,25.4840,-81.1330,1.5,17.1,11111222 
ENP,ioos.station.NOAA.NDBC:LBRF1:1,2010-11-06T10:00:00Z,25.4840,-81.1330,1.5,6.4,11111222 
ENP,ioos.station.NOAA.NDBC:LBRF1:1,2010-11-06T11:00:00Z,25.4840,-81.1330,1.5,5.7,11111222 
ENP,ioos.station.NOAA.NDBC:LBRF1:1,2010-11-06T12:00:00Z,25.4840,-81.1330,1.5,4.9,11111222 
ENP,ioos.station.NOAA.NDBC:LBRF1:1,2010-11-06T13:00:00Z,25.4840,-81.1330,1.5,4.0,11111222 
ENP,ioos.station.NOAA.NDBC:LBRF1:1,2010-11-06T14:00:00Z,25.4840,-81.1330,1.5,3.4,11111222 
ENP,ioos.station.NOAA.NDBC:LBRF1:1,2010-11-06T15:00:00Z,25.4840,-81.1330,1.5,3.0,11111222 
ENP,ioos.station.NOAA.NDBC:LBRF1:1,2010-11-06T16:00:00Z,25.4840,-81.1330,1.5,2.8,11111222 
ENP,ioos.station.NOAA.NDBC:LBRF1:1,2010-11-06T18:00:00Z,25.4840,-81.1330,1.5,2.9,11111222 
ENP,ioos.station.NOAA.NDBC:LBRF1:1,2010-11-06T19:00:00Z,25.4840,-81.1330,1.5,3.3,11111222 
ENP,ioos.station.NOAA.NDBC:LBRF1:1,2010-11-06T20:00:00Z,25.4840,-81.1330,1.5,3.9,11111222 
ENP,ioos.station.NOAA.NDBC:LBRF1:1,2010-11-06T21:00:00Z,25.4840,-81.1330,1.5,4.1,11111222 
ENP,ioos.station.NOAA.NDBC:LBRF1:1,2010-11-06T22:00:00Z,25.4840,-81.1330,1.5,3.4,11111222 
ENP,ioos.station.NOAA.NDBC:LBRF1:1,2010-11-06T23:00:00Z,25.4840,-81.1330,1.5,3.1,11111222 
ENP,ioos.station.NOAA.NDBC:LBRF1:1,2010-11-07T00:00:00Z,25.4840,-81.1330,1.5,2.9,11111222 
ENP,ioos.station.NOAA.NDBC:LBRF1:1,2010-11-07T01:00:00Z,25.4840,-81.1330,1.5,2.5,11111222 
ENP,ioos.station.NOAA.NDBC:LBRF1:1,2010-11-07T02:00:00Z,25.4840,-81.1330,1.5,2.3,11111222 
ENP,ioos.station.NOAA.NDBC:LBRF1:1,2010-11-07T03:00:00Z,25.4840,-81.1330,1.5,2.1,11111222 
ENP,ioos.station.NOAA.NDBC:LBRF1:1,2010-11-07T04:00:00Z,25.4840,-81.1330,1.5,2.1,11111222 
ENP,ioos.station.NOAA.NDBC:LBRF1:1,2010-11-07T05:00:00Z,25.4840,-81.1330,1.5,2.4,11111222 
ENP,ioos.station.NOAA.NDBC:LBRF1:1,2010-11-07T06:00:00Z,25.4840,-81.1330,1.5,4.1,11111222 
ENP,ioos.station.NOAA.NDBC:LBRF1:1,2010-11-07T07:00:00Z,25.4840,-81.1330,1.5,6.6,11111222 
ENP,ioos.station.NOAA.NDBC:LBRF1:1,2010-11-07T09:00:00Z,25.4840,-81.1330,1.5,5.8,11111222 
ENP,ioos.station.NOAA.NDBC:LBRF1:1,2010-11-07T10:00:00Z,25.4840,-81.1330,1.5,3.9,11111222 
ENP,ioos.station.NOAA.NDBC:LBRF1:1,2010-11-07T11:00:00Z,25.4840,-81.1330,1.5,2.7,11111222 
ENP,ioos.station.NOAA.NDBC:LBRF1:1,2010-11-07T12:00:00Z,25.4840,-81.1330,1.5,2.4,11111222 
ENP,ioos.station.NOAA.NDBC:LBRF1:1,2010-11-07T13:00:00Z,25.4840,-81.1330,1.5,2.0,11111222 
ENP,ioos.station.NOAA.NDBC:LBRF1:1,2010-11-07T14:00:00Z,25.4840,-81.1330,1.5,1.9,11111222 
ENP,ioos.station.NOAA.NDBC:LBRF1:1,2010-11-07T15:00:00Z,25.4840,-81.1330,1.5,1.7,11111222 
ENP,ioos.station.NOAA.NDBC:LBRF1:1,2010-11-07T17:00:00Z,25.4840,-81.1330,1.5,1.4,11111222 
ENP,ioos.station.NOAA.NDBC:LBRF1:1,2010-11-07T18:00:00Z,25.4840,-81.1330,1.5,1.6,11111222 
ENP,ioos.station.NOAA.NDBC:LBRF1:1,2010-11-07T19:00:00Z,25.4840,-81.1330,1.5,2.1,11111222 
ENP,ioos.station.NOAA.NDBC:LBRF1:1,2010-11-07T20:00:00Z,25.4840,-81.1330,1.5,2.8,11111222 
ENP,ioos.station.NOAA.NDBC:LBRF1:1,2010-11-07T21:00:00Z,25.4840,-81.1330,1.5,3.8,11111222 
ENP,ioos.station.NOAA.NDBC:LBRF1:1,2010-11-07T22:00:00Z,25.4840,-81.1330,1.5,3.9,11111222 
ENP,ioos.station.NOAA.NDBC:LBRF1:1,2010-11-07T23:00:00Z,25.4840,-81.1330,1.5,3.0,11111222 
ENP,ioos.station.NOAA.NDBC:LBRF1:1,2010-11-08T00:00:00Z,25.4840,-81.1330,1.5,2.3,11111222 
ENP,ioos.station.NOAA.NDBC:LBRF1:1,2010-11-08T01:00:00Z,25.4840,-81.1330,1.5,1.9,11111222 
ENP,ioos.station.NOAA.NDBC:LBRF1:1,2010-11-08T02:00:00Z,25.4840,-81.1330,1.5,1.8,11111222 
ENP,ioos.station.NOAA.NDBC:LBRF1:1,2010-11-08T03:00:00Z,25.4840,-81.1330,1.5,1.8,11111222 
ENP,ioos.station.NOAA.NDBC:LBRF1:1,2010-11-08T04:00:00Z,25.4840,-81.1330,1.5,1.6,11111222 
ENP,ioos.station.NOAA.NDBC:LBRF1:1,2010-11-08T05:00:00Z,25.4840,-81.1330,1.5,1.8,11111222 
ENP,ioos.station.NOAA.NDBC:LBRF1:1,2010-11-08T06:00:00Z,25.4840,-81.1330,1.5,6.4,11111222 
ENP,ioos.station.NOAA.NDBC:LBRF1:1,2010-11-08T07:00:00Z,25.4840,-81.1330,1.5,8.4,11111222 
ENP,ioos.station.NOAA.NDBC:LBRF1:1,2010-11-08T09:00:00Z,25.4840,-81.1330,1.5,15.5,11111222 
ENP,ioos.station.NOAA.NDBC:LBRF1:1,2010-11-08T10:00:00Z,25.4840,-81.1330,1.5,10.9,11111222 
ENP,ioos.station.NOAA.NDBC:LBRF1:1,2010-11-08T11:00:00Z,25.4840,-81.1330,1.5,7.0,11111222 
ENP,ioos.station.NOAA.NDBC:LBRF1:1,2010-11-08T12:00:00Z,25.4840,-81.1330,1.5,4.1,11111222 
ENP,ioos.station.NOAA.NDBC:LBRF1:1,2010-11-08T13:00:00Z,25.4840,-81.1330,1.5,2.3,11111222 
ENP,ioos.station.NOAA.NDBC:LBRF1:1,2010-11-08T14:00:00Z,25.4840,-81.1330,1.5,1.9,11111222 
ENP,ioos.station.NOAA.NDBC:LBRF1:1,2010-11-08T15:00:00Z,25.4840,-81.1330,1.5,1.8,11111222 
ENP,ioos.station.NOAA.NDBC:LBRF1:1,2010-11-08T17:00:00Z,25.4840,-81.1330,1.5,1.7,11111222 
ENP,ioos.station.NOAA.NDBC:LBRF1:1,2010-11-08T18:00:00Z,25.4840,-81.1330,1.5,1.6,11111222 
ENP,ioos.station.NOAA.NDBC:LBRF1:1,2010-11-08T19:00:00Z,25.4840,-81.1330,1.5,1.7,11111222 
ENP,ioos.station.NOAA.NDBC:LBRF1:1,2010-11-08T20:00:00Z,25.4840,-81.1330,1.5,2.8,11111222 
ENP,ioos.station.NOAA.NDBC:LBRF1:1,2010-11-08T21:00:00Z,25.4840,-81.1330,1.5,6.5,11111222 
ENP,ioos.station.NOAA.NDBC:LBRF1:1,2010-11-08T22:00:00Z,25.4840,-81.1330,1.5,12.6,11111222 
ENP,ioos.station.NOAA.NDBC:LBRF1:1,2010-11-08T23:00:00Z,25.4840,-81.1330,1.5,15.4,11111222 
ENP,ioos.station.NOAA.NDBC:LBRF1:1,2010-11-09T00:00:00Z,25.4840,-81.1330,1.5,10.6,11111222 
ENP,ioos.station.NOAA.NDBC:LBRF1:1,2010-11-09T01:00:00Z,25.4840,-81.1330,1.5,5.0,11111222 
ENP,ioos.station.NOAA.NDBC:LBRF1:1,2010-11-09T02:00:00Z,25.4840,-81.1330,1.5,3.2,11111222 
ENP,ioos.station.NOAA.NDBC:LBRF1:1,2010-11-09T03:00:00Z,25.4840,-81.1330,1.5,2.6,11111222 
ENP,ioos.station.NOAA.NDBC:LBRF1:1,2010-11-09T04:00:00Z,25.4840,-81.1330,1.5,2.2,11111222 
ENP,ioos.station.NOAA.NDBC:LBRF1:1,2010-11-09T05:00:00Z,25.4840,-81.1330,1.5,9.0,11111222 
ENP,ioos.station.NOAA.NDBC:LBRF1:1,2010-11-09T06:00:00Z,25.4840,-81.1330,1.5,15.0,11111222 
ENP,ioos.station.NOAA.NDBC:LBRF1:1,2010-11-09T07:00:00Z,25.4840,-81.1330,1.5,18.4,11111222 
ENP,ioos.station.NOAA.NDBC:LBRF1:1,2010-11-09T09:00:00Z,25.4840,-81.1330,1.5,26.7,11111222 
ENP,ioos.station.NOAA.NDBC:LBRF1:1,2010-11-09T10:00:00Z,25.4840,-81.1330,1.5,27.5,11111222 
ENP,ioos.station.NOAA.NDBC:LBRF1:1,2010-11-09T11:00:00Z,25.4840,-81.1330,1.5,26.0,11111222 
ENP,ioos.station.NOAA.NDBC:LBRF1:1,2010-11-09T12:00:00Z,25.4840,-81.1330,1.5,22.6,11111222 
ENP,ioos.station.NOAA.NDBC:LBRF1:1,2010-11-09T13:00:00Z,25.4840,-81.1330,1.5,18.5,11111222 
ENP,ioos.station.NOAA.NDBC:LBRF1:1,2010-11-09T14:00:00Z,25.4840,-81.1330,1.5,12.5,11111222 
ENP,ioos.station.NOAA.NDBC:LBRF1:1,2010-11-09T15:00:00Z,25.4840,-81.1330,1.5,7.3,11111222 
ENP,ioos.station.NOAA.NDBC:LBRF1:1,2010-11-09T17:00:00Z,25.4840,-81.1330,1.5,2.8,11111222 
ENP,ioos.station.NOAA.NDBC:LBRF1:1,2010-11-09T18:00:00Z,25.4840,-81.1330,1.5,2.3,11111222 
ENP,ioos.station.NOAA.NDBC:LBRF1:1,2010-11-09T19:00:00Z,25.4840,-81.1330,1.5,2.8,11111222 
ENP,ioos.station.NOAA.NDBC:LBRF1:1,2010-11-09T20:00:00Z,25.4840,-81.1330,1.5,5.0,11111222 
ENP,ioos.station.NOAA.NDBC:LBRF1:1,2010-11-09T21:00:00Z,25.4840,-81.1330,1.5,11.7,11111222 
ENP,ioos.station.NOAA.NDBC:LBRF1:1,2010-11-09T22:00:00Z,25.4840,-81.1330,1.5,18.3,11111222 
ENP,ioos.station.NOAA.NDBC:LBRF1:1,2010-11-09T23:00:00Z,25.4840,-81.1330,1.5,20.1,11111222 
ENP,ioos.station.NOAA.NDBC:LBRF1:1,2010-11-10T01:00:00Z,25.4840,-81.1330,1.5,15.0,11111222 
ENP,ioos.station.NOAA.NDBC:LBRF1:1,2010-11-10T02:00:00Z,25.4840,-81.1330,1.5,8.4,11111222 
ENP,ioos.station.NOAA.NDBC:LBRF1:1,2010-11-10T03:00:00Z,25.4840,-81.1330,1.5,4.6,11111222 
ENP,ioos.station.NOAA.NDBC:LBRF1:1,2010-11-10T04:00:00Z,25.4840,-81.1330,1.5,3.3,11111222 
ENP,ioos.station.NOAA.NDBC:LBRF1:1,2010-11-10T05:00:00Z,25.4840,-81.1330,1.5,3.0,11111222 
ENP,ioos.station.NOAA.NDBC:LBRF1:1,2010-11-10T06:00:00Z,25.4840,-81.1330,1.5,8.9,11111222 
ENP,ioos.station.NOAA.NDBC:LBRF1:1,2010-11-10T07:00:00Z,25.4840,-81.1330,1.5,14.5,11111222 
ENP,ioos.station.NOAA.NDBC:LBRF1:1,2010-11-10T09:00:00Z,25.4840,-81.1330,1.5,25.4,11111222 
ENP,ioos.station.NOAA.NDBC:LBRF1:1,2010-11-10T10:00:00Z,25.4840,-81.1330,1.5,28.1,11111222 
ENP,ioos.station.NOAA.NDBC:LBRF1:1,2010-11-10T11:00:00Z,25.4840,-81.1330,1.5,28.5,11111222 
ENP,ioos.station.NOAA.NDBC:LBRF1:1,2010-11-10T12:00:00Z,25.4840,-81.1330,1.5,27.0,11111222 
ENP,ioos.station.NOAA.NDBC:LBRF1:1,2010-11-10T13:00:00Z,25.4840,-81.1330,1.5,22.9,11111222 
ENP,ioos.station.NOAA.NDBC:LBRF1:1,2010-11-10T14:00:00Z,25.4840,-81.1330,1.5,18.8,11111222 
ENP,ioos.station.NOAA.NDBC:LBRF1:1,2010-11-10T15:00:00Z,25.4840,-81.1330,1.5,13.1,11111222 
ENP,ioos.station.NOAA.NDBC:LBRF1:1,2010-11-10T17:00:00Z,25.4840,-81.1330,1.5,3.8,11111222 
ENP,ioos.station.NOAA.NDBC:LBRF1:1,2010-11-10T18:00:00Z,25.4840,-81.1330,1.5,3.0,11111222 
ENP,ioos.station.NOAA.NDBC:LBRF1:1,2010-11-10T19:00:00Z,25.4840,-81.1330,1.5,2.9,11111222 
ENP,ioos.station.NOAA.NDBC:LBRF1:1,2010-11-10T20:00:00Z,25.4840,-81.1330,1.5,4.3,11111222 
ENP,ioos.station.NOAA.NDBC:LBRF1:1,2010-11-10T21:00:00Z,25.4840,-81.1330,1.5,10.6,11111222 
ENP,ioos.station.NOAA.NDBC:LBRF1:1,2010-11-10T22:00:00Z,25.4840,-81.1330,1.5,19.4,11111222 
ENP,ioos.station.NOAA.NDBC:LBRF1:1,2010-11-10T23:00:00Z,25.4840,-81.1330,1.5,22.7,11111222 
ENP,ioos.station.NOAA.NDBC:LBRF1:1,2010-11-11T00:00:00Z,25.4840,-81.1330,1.5,23.8,11111222 
ENP,ioos.station.NOAA.NDBC:LBRF1:1,2010-11-11T02:00:00Z,25.4840,-81.1330,1.5,17.2,11111222 
ENP,ioos.station.NOAA.NDBC:LBRF1:1,2010-11-11T03:00:00Z,25.4840,-81.1330,1.5,12.9,11111222 
ENP,ioos.station.NOAA.NDBC:LBRF1:1,2010-11-11T05:00:00Z,25.4840,-81.1330,1.5,4.6,11111222 
ENP,ioos.station.NOAA.NDBC:LBRF1:1,2010-11-11T06:00:00Z,25.4840,-81.1330,1.5,5.9,11111222 
ENP,ioos.station.NOAA.NDBC:LBRF1:1,2010-11-11T07:00:00Z,25.4840,-81.1330,1.5,14.9,11111222 
ENP,ioos.station.NOAA.NDBC:LBRF1:1,2010-11-11T09:00:00Z,25.4840,-81.1330,1.5,22.1,11111222 
ENP,ioos.station.NOAA.NDBC:LBRF1:1,2010-11-11T10:00:00Z,25.4840,-81.1330,1.5,25.4,11111222 
ENP,ioos.station.NOAA.NDBC:LBRF1:1,2010-11-11T11:00:00Z,25.4840,-81.1330,1.5,26.8,11111222 
ENP,ioos.station.NOAA.NDBC:LBRF1:1,2010-11-11T12:00:00Z,25.4840,-81.1330,1.5,26.4,11111222 
ENP,ioos.station.NOAA.NDBC:LBRF1:1,2010-11-11T13:00:00Z,25.4840,-81.1330,1.5,24.0,11111222 
ENP,ioos.station.NOAA.NDBC:LBRF1:1,2010-11-11T14:00:00Z,25.4840,-81.1330,1.5,19.8,11111222 
ENP,ioos.station.NOAA.NDBC:LBRF1:1,2010-11-11T15:00:00Z,25.4840,-81.1330,1.5,16.0,11111222 
ENP,ioos.station.NOAA.NDBC:LBRF1:1,2010-11-11T17:00:00Z,25.4840,-81.1330,1.5,3.9,11111222 
ENP,ioos.station.NOAA.NDBC:LBRF1:1,2010-11-11T18:00:00Z,25.4840,-81.1330,1.5,3.0,11111222 
ENP,ioos.station.NOAA.NDBC:LBRF1:1,2010-11-11T19:00:00Z,25.4840,-81.1330,1.5,2.6,11111222 
ENP,ioos.station.NOAA.NDBC:LBRF1:1,2010-11-11T20:00:00Z,25.4840,-81.1330,1.5,2.6,11111222 
ENP,ioos.station.NOAA.NDBC:LBRF1:1,2010-11-11T21:00:00Z,25.4840,-81.1330,1.5,2.9,11111222 
ENP,ioos.station.NOAA.NDBC:LBRF1:1,2010-11-11T22:00:00Z,25.4840,-81.1330,1.5,8.1,11111222 
ENP,ioos.station.NOAA.NDBC:LBRF1:1,2010-11-11T23:00:00Z,25.4840,-81.1330,1.5,14.9,11111222 
ENP,ioos.station.NOAA.NDBC:LBRF1:1,2010-11-12T01:00:00Z,25.4840,-81.1330,1.5,21.6,11111222 
ENP,ioos.station.NOAA.NDBC:LBRF1:1,2010-11-12T02:00:00Z,25.4840,-81.1330,1.5,20.2,11111222 
ENP,ioos.station.NOAA.NDBC:LBRF1:1,2010-11-12T03:00:00Z,25.4840,-81.1330,1.5,14.4,11111222 
ENP,ioos.station.NOAA.NDBC:LBRF1:1,2010-11-12T04:00:00Z,25.4840,-81.1330,1.5,9.2,11111222 
ENP,ioos.station.NOAA.NDBC:LBRF1:1,2010-11-12T05:00:00Z,25.4840,-81.1330,1.5,4.7,11111222 
ENP,ioos.station.NOAA.NDBC:LBRF1:1,2010-11-12T06:00:00Z,25.4840,-81.1330,1.5,3.2,11111222 
ENP,ioos.station.NOAA.NDBC:LBRF1:1,2010-11-12T07:00:00Z,25.4840,-81.1330,1.5,3.0,11111222 
ENP,ioos.station.NOAA.NDBC:LBRF1:1,2010-11-12T09:00:00Z,25.4840,-81.1330,1.5,18.8,11111222 
ENP,ioos.station.NOAA.NDBC:LBRF1:1,2010-11-12T10:00:00Z,25.4840,-81.1330,1.5,19.7,11111222 
ENP,ioos.station.NOAA.NDBC:LBRF1:1,2010-11-12T11:00:00Z,25.4840,-81.1330,1.5,20.4,11111222 
ENP,ioos.station.NOAA.NDBC:LBRF1:1,2010-11-12T12:00:00Z,25.4840,-81.1330,1.5,22.8,11111222 
ENP,ioos.station.NOAA.NDBC:LBRF1:1,2010-11-12T13:00:00Z,25.4840,-81.1330,1.5,22.1,11111222 
ENP,ioos.station.NOAA.NDBC:LBRF1:1,2010-11-12T14:00:00Z,25.4840,-81.1330,1.5,17.8,11111222 
ENP,ioos.station.NOAA.NDBC:LBRF1:1,2010-11-12T15:00:00Z,25.4840,-81.1330,1.5,13.8,11111222 
ENP,ioos.station.NOAA.NDBC:LBRF1:1,2010-11-12T17:00:00Z,25.4840,-81.1330,1.5,3.0,11111222 
ENP,ioos.station.NOAA.NDBC:LBRF1:1,2010-11-12T18:00:00Z,25.4840,-81.1330,1.5,2.4,11111222 
ENP,ioos.station.NOAA.NDBC:LBRF1:1,2010-11-12T19:00:00Z,25.4840,-81.1330,1.5,2.2,11111222 
ENP,ioos.station.NOAA.NDBC:LBRF1:1,2010-11-12T20:00:00Z,25.4840,-81.1330,1.5,2.0,11111222 
ENP,ioos.station.NOAA.NDBC:LBRF1:1,2010-11-12T21:00:00Z,25.4840,-81.1330,1.5,2.1,11111222 
ENP,ioos.station.NOAA.NDBC:LBRF1:1,2010-11-12T22:00:00Z,25.4840,-81.1330,1.5,2.4,11111222 
ENP,ioos.station.NOAA.NDBC:LBRF1:1,2010-11-12T23:00:00Z,25.4840,-81.1330,1.5,6.4,11111222 
ENP,ioos.station.NOAA.NDBC:LBRF1:1,2010-11-13T00:00:00Z,25.4840,-81.1330,1.5,12.4,11111222 
ENP,ioos.station.NOAA.NDBC:LBRF1:1,2010-11-13T01:00:00Z,25.4840,-81.1330,1.5,17.3,11111222 
ENP,ioos.station.NOAA.NDBC:LBRF1:1,2010-11-13T02:00:00Z,25.4840,-81.1330,1.5,19.6,11111222 
ENP,ioos.station.NOAA.NDBC:LBRF1:1,2010-11-13T03:00:00Z,25.4840,-81.1330,1.5,19.4,11111222 
ENP,ioos.station.NOAA.NDBC:LBRF1:1,2010-11-13T04:00:00Z,25.4840,-81.1330,1.5,14.6,11111222 
ENP,ioos.station.NOAA.NDBC:LBRF1:1,2010-11-13T05:00:00Z,25.4840,-81.1330,1.5,8.9,11111222 
ENP,ioos.station.NOAA.NDBC:LBRF1:1,2010-11-13T06:00:00Z,25.4840,-81.1330,1.5,5.2,11111222 
ENP,ioos.station.NOAA.NDBC:LBRF1:1,2010-11-13T07:00:00Z,25.4840,-81.1330,1.5,3.2,11111222 
ENP,ioos.station.NOAA.NDBC:LBRF1:1,2010-11-13T09:00:00Z,25.4840,-81.1330,1.5,2.4,11111222 
ENP,ioos.station.NOAA.NDBC:LBRF1:1,2010-11-13T10:00:00Z,25.4840,-81.1330,1.5,13.3,11111222 
ENP,ioos.station.NOAA.NDBC:LBRF1:1,2010-11-13T11:00:00Z,25.4840,-81.1330,1.5,17.3,11111222 
ENP,ioos.station.NOAA.NDBC:LBRF1:1,2010-11-13T12:00:00Z,25.4840,-81.1330,1.5,18.2,11111222 
ENP,ioos.station.NOAA.NDBC:LBRF1:1,2010-11-13T13:00:00Z,25.4840,-81.1330,1.5,19.0,11111222 
ENP,ioos.station.NOAA.NDBC:LBRF1:1,2010-11-13T14:00:00Z,25.4840,-81.1330,1.5,20.4,11111222 
ENP,ioos.station.NOAA.NDBC:LBRF1:1,2010-11-13T15:00:00Z,25.4840,-81.1330,1.5,18.8,11111222 
ENP,ioos.station.NOAA.NDBC:LBRF1:1,2010-11-13T17:00:00Z,25.4840,-81.1330,1.5,7.7,11111222 
ENP,ioos.station.NOAA.NDBC:LBRF1:1,2010-11-13T18:00:00Z,25.4840,-81.1330,1.5,2.9,11111222 
ENP,ioos.station.NOAA.NDBC:LBRF1:1,2010-11-13T19:00:00Z,25.4840,-81.1330,1.5,2.4,11111222 
ENP,ioos.station.NOAA.NDBC:LBRF1:1,2010-11-13T20:00:00Z,25.4840,-81.1330,1.5,2.2,11111222 
ENP,ioos.station.NOAA.NDBC:LBRF1:1,2010-11-13T21:00:00Z,25.4840,-81.1330,1.5,2.1,11111222 
ENP,ioos.station.NOAA.NDBC:LBRF1:1,2010-11-13T22:00:00Z,25.4840,-81.1330,1.5,12.6,11111222 
ENP,ioos.station.NOAA.NDBC:LBRF1:1,2010-11-13T23:00:00Z,25.4840,-81.1330,1.5,9.0,11111222 
ENP,ioos.station.NOAA.NDBC:LBRF1:1,2010-11-14T00:00:00Z,25.4840,-81.1330,1.5,15.7,11111222 
ENP,ioos.station.NOAA.NDBC:LBRF1:1,2010-11-14T01:00:00Z,25.4840,-81.1330,1.5,20.9,11111222 
ENP,ioos.station.NOAA.NDBC:LBRF1:1,2010-11-14T02:00:00Z,25.4840,-81.1330,1.5,23.7,11111222 
ENP,ioos.station.NOAA.NDBC:LBRF1:1,2010-11-14T03:00:00Z,25.4840,-81.1330,1.5,24.4,11111222 
ENP,ioos.station.NOAA.NDBC:LBRF1:1,2010-11-14T04:00:00Z,25.4840,-81.1330,1.5,24.6,11111222 
ENP,ioos.station.NOAA.NDBC:LBRF1:1,2010-11-14T05:00:00Z,25.4840,-81.1330,1.5,22.3,11111222 
ENP,ioos.station.NOAA.NDBC:LBRF1:1,2010-11-14T06:00:00Z,25.4840,-81.1330,1.5,18.2,11111222 
ENP,ioos.station.NOAA.NDBC:LBRF1:1,2010-11-14T07:00:00Z,25.4840,-81.1330,1.5,15.1,11111222 
ENP,ioos.station.NOAA.NDBC:LBRF1:1,2010-11-14T09:00:00Z,25.4840,-81.1330,1.5,10.5,11111222 
ENP,ioos.station.NOAA.NDBC:LBRF1:1,2010-11-14T10:00:00Z,25.4840,-81.1330,1.5,11.1,11111222 
ENP,ioos.station.NOAA.NDBC:LBRF1:1,2010-11-14T11:00:00Z,25.4840,-81.1330,1.5,15.9,11111222 
ENP,ioos.station.NOAA.NDBC:LBRF1:1,2010-11-14T12:00:00Z,25.4840,-81.1330,1.5,20.5,11111222 
ENP,ioos.station.NOAA.NDBC:LBRF1:1,2010-11-14T13:00:00Z,25.4840,-81.1330,1.5,22.1,11111222 
ENP,ioos.station.NOAA.NDBC:LBRF1:1,2010-11-14T14:00:00Z,25.4840,-81.1330,1.5,23.0,11111222 
ENP,ioos.station.NOAA.NDBC:LBRF1:1,2010-11-14T15:00:00Z,25.4840,-81.1330,1.5,23.7,11111222 
ENP,ioos.station.NOAA.NDBC:LBRF1:1,2010-11-14T17:00:00Z,25.4840,-81.1330,1.5,18.9,11111222 
ENP,ioos.station.NOAA.NDBC:LBRF1:1,2010-11-14T18:00:00Z,25.4840,-81.1330,1.5,16.1,11111222 
ENP,ioos.station.NOAA.NDBC:LBRF1:1,2010-11-14T19:00:00Z,25.4840,-81.1330,1.5,11.5,11111222 
ENP,ioos.station.NOAA.NDBC:LBRF1:1,2010-11-14T20:00:00Z,25.4840,-81.1330,1.5,7.5,11111222 
ENP,ioos.station.NOAA.NDBC:LBRF1:1,2010-11-14T21:00:00Z,25.4840,-81.1330,1.5,5.5,11111222 
ENP,ioos.station.NOAA.NDBC:LBRF1:1,2010-11-14T22:00:00Z,25.4840,-81.1330,1.5,7.1,11111222 
ENP,ioos.station.NOAA.NDBC:LBRF1:1,2010-11-14T23:00:00Z,25.4840,-81.1330,1.5,17.5,11111222 
ENP,ioos.station.NOAA.NDBC:LBRF1:1,2010-11-15T01:00:00Z,25.4840,-81.1330,1.5,22.4,11111222 
ENP,ioos.station.NOAA.NDBC:LBRF1:1,2010-11-15T02:00:00Z,25.4840,-81.1330,1.5,25.5,11111222 
ENP,ioos.station.NOAA.NDBC:LBRF1:1,2010-11-15T03:00:00Z,25.4840,-81.1330,1.5,26.8,11111222 
ENP,ioos.station.NOAA.NDBC:LBRF1:1,2010-11-15T04:00:00Z,25.4840,-81.1330,1.5,27.3,11111222 